EN

Hourly Weather Allate

Today, 24 January, Sunday

Time Temperature Precipitation Wind Pressure Humidity
00:00 -1°C° 0 mm 1 mps 637 mmHg 29%
01:00 -1°C° 0 mm 1 mps 637 mmHg 21%
02:00 -1°C° 0 mm 1 mps 637 mmHg 20%
03:00 -1°C° 0 mm 1 mps 636 mmHg 18%
04:00 -1°C° 0 mm 1 mps 636 mmHg 17%
05:00 -1°C° 0 mm 1 mps 636 mmHg 17%
06:00 -2°C° 0 mm 1 mps 636 mmHg 16%
07:00 -1°C° 0 mm 1 mps 637 mmHg 16%
08:00 0°C° 0 mm 1 mps 637 mmHg 16%
09:00 +1°C° 0 mm 1 mps 637 mmHg 16%
10:00 +2°C° 0 mm 1 mps 638 mmHg 16%
11:00 +4°C° 0 mm 1 mps 638 mmHg 15%
12:00 +4°C° 0 mm 0 mps 638 mmHg 15%
13:00 +4°C° 0 mm 0 mps 638 mmHg 19%
14:00 +5°C° 0 mm 0 mps 637 mmHg 22%
15:00 +5°C° 0 mm 0 mps 637 mmHg 25%
16:00 +4°C° 0 mm 1 mps 637 mmHg 25%
17:00 +3°C° 0 mm 1 mps 636 mmHg 25%
18:00 +1°C° 0 mm 1 mps 636 mmHg 25%
19:00 -1°C° 0 mm 2 mps 636 mmHg 25%
20:00 -1°C° 0 mm 2 mps 636 mmHg 25%
21:00 -1°C° 0 mm 2 mps 636 mmHg 25%
22:00 -1°C° 0 mm 2 mps 636 mmHg 25%
23:00 -1°C° 0 mm 2 mps 636 mmHg 25%

Tomorrow, 25 January, Monday

Time Temperature Precipitation Wind Pressure Humidity
00:00 -1°C° 0 mm 2 mps 635 mmHg 25%
01:00 -1°C° 0 mm 2 mps 635 mmHg 25%
02:00 -1°C° 0 mm 2 mps 635 mmHg 25%
03:00 -1°C° 0 mm 2 mps 635 mmHg 25%
04:00 -1°C° 0 mm 2 mps 635 mmHg 26%
05:00 -1°C° 0 mm 2 mps 635 mmHg 26%
06:00 +1°C° 0 mm 2 mps 635 mmHg 27%
07:00 +1°C° 0 mm 2 mps 635 mmHg 27%
08:00 +2°C° 0 mm 2 mps 636 mmHg 27%
09:00 +4°C° 0 mm 1 mps 636 mmHg 27%
10:00 +5°C° 0 mm 1 mps 637 mmHg 26%
11:00 +7°C° 0 mm 1 mps 637 mmHg 24%
12:00 +7°C° 0 mm 0 mps 637 mmHg 23%
13:00 +7°C° 0 mm 0 mps 637 mmHg 27%
14:00 +7°C° 0 mm 0 mps 637 mmHg 31%
15:00 +7°C° 0 mm 0 mps 636 mmHg 35%
16:00 +6°C° 0 mm 1 mps 636 mmHg 35%
17:00 +5°C° 0 mm 1 mps 635 mmHg 36%
18:00 +3°C° 0 mm 1 mps 635 mmHg 36%
19:00 +3°C° 0 mm 1 mps 635 mmHg 36%
20:00 +2°C° 0 mm 2 mps 635 mmHg 35%
21:00 +1°C° 0 mm 2 mps 635 mmHg 35%
22:00 +1°C° 0 mm 2 mps 635 mmHg 34%
23:00 +1°C° 0 mm 2 mps 634 mmHg 33%

Day after tomorrow, 26 January, Tuesday

Time Temperature Precipitation Wind Pressure Humidity
00:00 +1°C° 0 mm 2 mps 634 mmHg 32%
01:00 +1°C° 0 mm 2 mps 634 mmHg 31%
02:00 +1°C° 0 mm 2 mps 634 mmHg 31%
03:00 +1°C° 0 mm 2 mps 634 mmHg 30%
04:00 +1°C° 0 mm 2 mps 634 mmHg 30%
05:00 +1°C° 0 mm 2 mps 634 mmHg 30%
06:00 +1°C° 0 mm 2 mps 634 mmHg 30%
07:00 +2°C° 0 mm 2 mps 635 mmHg 29%
08:00 +3°C° 0 mm 2 mps 635 mmHg 28%
09:00 +5°C° 0 mm 1 mps 636 mmHg 27%
10:00 +6°C° 0 mm 1 mps 636 mmHg 25%
11:00 +8°C° 0 mm 1 mps 636 mmHg 24%
12:00 +8°C° 0 mm 0 mps 636 mmHg 23%
13:00 +8°C° 0 mm 0 mps 636 mmHg 27%
14:00 +7°C° 0 mm 0 mps 636 mmHg 31%
15:00 +7°C° 0 mm 0 mps 636 mmHg 35%
16:00 +7°C° 0 mm 1 mps 635 mmHg 35%
17:00 +6°C° 0 mm 1 mps 635 mmHg 36%
18:00 +3°C° 0 mm 2 mps 634 mmHg 37%
19:00 +3°C° 0 mm 2 mps 634 mmHg 37%
20:00 +3°C° 0 mm 2 mps 634 mmHg 37%
21:00 +3°C° 0 mm 2 mps 634 mmHg 37%
22:00 +3°C° 0 mm 2 mps 634 mmHg 36%
23:00 +3°C° 0 mm 2 mps 634 mmHg 35%

27 January, Wednesday

Time Temperature Precipitation Wind Pressure Humidity
00:00 +3°C° 0 mm 2 mps 634 mmHg 34%
01:00 +3°C° 0 mm 2 mps 634 mmHg 33%
02:00 +3°C° 0 mm 2 mps 634 mmHg 32%
03:00 +3°C° 0 mm 2 mps 634 mmHg 31%
04:00 +3°C° 0 mm 2 mps 634 mmHg 31%
05:00 +3°C° 0 mm 2 mps 634 mmHg 31%
06:00 +4°C° 0 mm 1 mps 634 mmHg 31%
07:00 +3°C° 0 mm 2 mps 634 mmHg 31%
08:00 +4°C° 0 mm 2 mps 634 mmHg 31%
09:00 +5°C° 0 mm 2 mps 634 mmHg 32%
10:00 +6°C° 0 mm 2 mps 634 mmHg 32%
11:00 +7°C° 0 mm 2 mps 634 mmHg 32%
12:00 +9°C° 0 mm 1 mps 634 mmHg 32%
13:00 +9°C° 0 mm 1 mps 634 mmHg 35%
14:00 +8°C° 0 mm 2 mps 633 mmHg 37%
15:00 +8°C° 0 mm 2 mps 633 mmHg 40%
16:00 +7°C° 0 mm 2 mps 632 mmHg 42%
17:00 +5°C° 0 mm 2 mps 631 mmHg 44%
18:00 +3°C° 0 mm 3 mps 631 mmHg 45%
19:00 +3°C° 0 mm 3 mps 631 mmHg 45%
20:00 +3°C° 0 mm 3 mps 630 mmHg 46%
21:00 +3°C° 0 mm 3 mps 630 mmHg 46%
22:00 +2°C° 0 mm 3 mps 629 mmHg 45%
23:00 +2°C° 0 mm 3 mps 629 mmHg 43%

28 January, Thursday

Time Temperature Precipitation Wind Pressure Humidity
00:00 +2°C° 0 mm 3 mps 628 mmHg 42%
01:00 +2°C° 0 mm 3 mps 628 mmHg 40%
02:00 +2°C° 0 mm 3 mps 627 mmHg 38%
03:00 +2°C° 0 mm 3 mps 627 mmHg 36%
04:00 +2°C° 0 mm 3 mps 627 mmHg 39%
05:00 +2°C° 0 mm 3 mps 626 mmHg 43%
06:00 +2°C° 0 mm 3 mps 626 mmHg 46%
07:00 +3°C° 0 mm 3 mps 626 mmHg 48%
08:00 +3°C° 0 mm 3 mps 626 mmHg 50%
09:00 +4°C° 0 mm 3 mps 626 mmHg 52%
10:00 +6°C° 0 mm 4 mps 627 mmHg 46%
11:00 +7°C° 0 mm 5 mps 627 mmHg 40%
12:00 +9°C° 0 mm 7 mps 627 mmHg 35%
13:00 +8°C° 0 mm 5 mps 627 mmHg 36%
14:00 +9°C° 0 mm 3 mps 627 mmHg 38%
15:00 +9°C° 0 mm 2 mps 626 mmHg 40%
16:00 +7°C° 0 mm 2 mps 626 mmHg 45%
17:00 +5°C° 0 mm 2 mps 626 mmHg 51%
18:00 +5°C° 0 mm 1 mps 626 mmHg 56%
19:00 +3°C° 0 mm 2 mps 626 mmHg 59%
20:00 +3°C° 0 mm 2 mps 626 mmHg 61%
21:00 +3°C° 0 mm 2 mps 626 mmHg 63%

29 January, Friday

Time Temperature Precipitation Wind Pressure Humidity
Show more